Погода в Пришибе

Украина / Запорожская область     47°15′10″N   35°19′22″E
темп.,
°C
ветер,
м/с
пор.,
м/с
влажн.,
%
обл.,
%
осадки,
мм/ч
давл.,
гПа
погр.,
м
9 марта, вт
вт923:000зсз3883100 0.0 1013351
02:00−1зсз378769 0.0 1015213
05:00−2зсз487835 0.0 1016344
08:00−1сз686518 0.0 1017776
11:00+1сз67470 0.0 10191254
14:00+2сз67460 0.0 10191527
17:000сз575355 0.0 10201335
20:00−2ссз486349 0.0 1022437
10 марта, ср
ср1023:00−3ссз466361 0.0 1024475
02:00−3с256431 0.0 1025500
05:00−4ссв356316 0.0 1025502
08:00−4св345555 0.0 1026601
11:00−1всв3439100 0.0 1026905
14:00+1всв3434100 0.0 10251226
17:00−1всв4644100 0.0 1024387
20:00−3всв5950100 0.0 1024350
11 марта, чт
чт1123:00−3всв4851100 0.0 1024385
02:00−3всв4851100 0.0 1024555
05:00−3всв5950100 0.0 1024660
08:00−3всв7104099 0.0 1025771
11:000всв783388 0.0 10261085
14:00+1всв673684 0.0 10251352
17:00−1всв57430 0.0 1026911
20:00−4всв610520 0.0 1027462
12 марта, пт
пт1223:00−5всв58420 0.0 1029547
02:00−6всв36390 0.0 1029773
05:00−7в45360 0.0 1030715
08:00−6в46320 0.0 1031692
11:00−3вюв45220 0.0 1030928
14:00−1юв34190 0.0 10301197
17:00−2юв452824 0.0 1029418
20:00−5юв6104330 0.0 1030511
13 марта, сб
сб1323:00−5юв4848100 0.0 1030407
02:00−3юв5944100 0.0 1029536
05:00−3юв61055100 0.0 1028594
08:00−1ююв7105598 0.0 1029751
11:00+2ююв784729 0.0 1028878
14:00+2ююв684924 0.0 1027882
17:000юв5860100 0.0 1026593
20:00−2юв3866100 0.0 1026383